Location: Caltech
(34.1382°N, 118.1253°W)
Time: 13:21:59
(UTC-07:00)

AO-27 - Visible Passes

Search period start: 29 May 2015 00:00
Search period end: 08 June 2015 00:00
Orbit: 786 x 798 km, 98.7° (Epoch: 28 May)

Date Brightness Start Highest point End Pass type
(mag) Time Alt. Az. Time Alt. Az. Time Alt. Az.
29 May 9.2 02:29:26 10° NE 02:33:41 26° E 02:34:36 25° ESE visible
29 May 8.6 04:08:36 10° N 04:13:14 32° WNW 04:15:22 23° WSW visible
30 May 10.0 02:02:19 10° ENE 02:04:25 13° E 02:05:20 12° ESE visible
30 May 7.7 03:39:16 10° N 03:44:26 62° WNW 03:46:06 41° SW visible
31 May 7.8 03:10:19 10° NNE 03:15:32 68° E 03:16:51 49° SSE visible
31 May 9.7 04:52:08 10° NW 04:54:33 13° WNW 04:56:40 10° W visible
01 Jun 8.8 02:41:48 10° NNE 02:46:30 34° E 02:47:36 31° ESE visible
01 Jun 9.0 04:21:40 10° NNW 04:25:53 24° WNW 04:28:22 17° WSW visible
02 Jun 9.7 02:14:00 10° NE 02:17:19 18° E 02:18:20 17° ESE visible
02 Jun 8.1 03:52:07 10° N 03:57:07 46° WNW 03:59:06 31° WSW visible
03 Jun 7.6 03:23:00 10° NNE 03:28:16 90° WNW 03:29:50 47° SSW visible
04 Jun 8.4 02:54:18 10° NNE 02:59:19 46° E 03:00:35 39° SE visible
04 Jun 9.3 04:34:53 10° NNW 04:38:31 19° WNW 04:41:21 12° WSW visible
05 Jun 9.3 02:26:07 10° NE 02:30:12 24° E 02:31:19 22° ESE visible
05 Jun 8.5 04:05:04 10° N 04:09:48 35° WNW 04:12:05 24° WSW visible
06 Jun 10.1 01:59:23 10° ENE 02:00:54 11° E 02:02:03 11° ESE visible
06 Jun 7.7 03:35:47 10° N 03:40:59 68° WNW 03:42:49 40° SW visible
07 Jun 7.9 03:06:53 10° NNE 03:12:04 62° E 03:13:32 44° SSE visible
07 Jun 9.6 04:48:21 10° NNW 04:51:08 14° WNW 04:53:40 10° W visible
